Change the Weather History Date:

Thursday, October 31, 2013

  Actual Average Record
Temperature  
Mean Temperature 70 °F 64 °F  
Max Temperature 82 °F 76 °F 86 °F (1998)
Min Temperature 58 °F 52 °F 42 °F (2005)
Degree Days  
Heating Degree Days 0    
Month to date heating degree days 34  
Since 1 July heating degree days 34  
Cooling Degree Days 5    
Month to date cooling degree days 175  
Year to date cooling degree days 2467  
Growing Degree Days 20 (Base 50)    
Moisture  
Dew Point 63 °F    
Average Humidity 72    
Maximum Humidity 93    
Minimum Humidity 51    
Precipitation  
Precipitation T in 0.12 in 0.43 in (1997)
Month to date precipitation 1.90 3.42  
Year to date precipitation 54.95 45.55  
Sea Level Pressure  
Sea Level Pressure 30.02 in    
Wind  
Wind Speed 7 mph (SSE)    
Max Wind Speed 18 mph    
Max Gust Speed 25 mph    
Visibility 10 miles    
Events      
T = Trace of Precipitation, MM = Missing Value Source: NWS Daily Summary

Daily Weather History Graph

Daily Weather History Graph

Search for Another Location

Airport or City:

Trip Planner

Search our weather history database for the weather conditions in past years. The results will help you decide how hot, cold, wet, or windy it might be!

Date:

Astronomy

Oct. 31, 2013 Rise Set
Actual Time 6:55 AM CDT 5:53 PM CDT
Civil Twilight 6:30 AM CDT 6:17 PM CDT
Nautical Twilight 6:01 AM CDT 6:46 PM CDT
Astronomical Twilight 5:33 AM CDT 7:14 PM CDT
Moon 3:55 AM CDT (10/31) 4:01 PM CDT (10/31)
Length of Visible Light 11h 47m
Length of Day
10h 57m
Waning Crescent, 10% of the Moon is Illuminated
Oct 31
Waning Crescent
Nov 3
New
Nov 9
First Quarter
Nov 17
Full
Nov 25
Last Quarter

Hourly Weather History & Observations

Time (CDT) Temp. Heat Index Dew Point Humidity Pressure Visibility Wind Dir Wind Speed Gust Speed Precip Events Conditions
12:53 AM 59.0 °F - 55.0 °F 87% 30.13 in 10.0 mi Calm Calm - N/A   Clear
1:53 AM 62.1 °F - 55.9 °F 80% 30.12 in 10.0 mi Calm Calm - N/A   Clear
2:53 AM 63.0 °F - 57.9 °F 84% 30.10 in 10.0 mi SE 3.5 mph - N/A   Clear
3:53 AM 64.0 °F - 59.0 °F 84% 30.10 in 10.0 mi Calm Calm - N/A   Partly Cloudy
4:53 AM 64.0 °F - 60.1 °F 87% 30.09 in 10.0 mi Calm Calm - N/A   Scattered Clouds
5:53 AM 63.0 °F - 61.0 °F 93% 30.09 in 10.0 mi Calm Calm - N/A   Clear
6:53 AM 64.0 °F - 62.1 °F 93% 30.08 in 10.0 mi SE 3.5 mph - N/A   Clear
7:53 AM 64.9 °F - 63.0 °F 93% 30.08 in 10.0 mi Variable 4.6 mph - N/A   Clear
8:53 AM 69.1 °F - 64.9 °F 87% 30.09 in 10.0 mi SSE 5.8 mph - N/A   Clear
9:53 AM 73.0 °F - 66.9 °F 81% 30.08 in 10.0 mi SSE 6.9 mph - N/A   Clear
10:53 AM 77.0 °F - 66.9 °F 71% 30.07 in 10.0 mi South 13.8 mph 17.3 mph N/A   Partly Cloudy
11:53 AM 79.0 °F - 66.0 °F 64% 30.06 in 10.0 mi South 12.7 mph 16.1 mph N/A   Overcast
12:53 PM 81.0 °F 82.5 °F 64.0 °F 56% 30.02 in 10.0 mi South 15.0 mph - N/A   Scattered Clouds
1:53 PM 81.0 °F 82.2 °F 63.0 °F 54% 29.99 in 10.0 mi South 15.0 mph 25.3 mph N/A   Clear
2:53 PM 82.0 °F 83.0 °F 62.1 °F 51% 29.96 in 10.0 mi South 13.8 mph - N/A   Clear
3:53 PM 80.1 °F 81.5 °F 63.0 °F 56% 29.95 in 10.0 mi SSE 12.7 mph 21.9 mph N/A   Scattered Clouds
4:53 PM 78.1 °F - 63.0 °F 60% 29.94 in 10.0 mi South 9.2 mph - N/A   Clear
5:53 PM 75.9 °F - 64.0 °F 67% 29.94 in 10.0 mi South 8.1 mph - N/A   Scattered Clouds
6:53 PM 73.9 °F - 64.9 °F 73% 29.94 in 10.0 mi SSE 5.8 mph - N/A   Clear
7:53 PM 73.0 °F - 66.0 °F 79% 29.95 in 10.0 mi South 5.8 mph - N/A   Partly Cloudy
8:53 PM 73.0 °F - 66.9 °F 81% 29.95 in 10.0 mi SSE 5.8 mph - N/A   Scattered Clouds
9:53 PM 73.0 °F - 68.0 °F 84% 29.95 in 10.0 mi SSE 10.4 mph - N/A   Clear
10:53 PM 72.0 °F - 68.0 °F 87% 29.95 in 10.0 mi South 8.1 mph - N/A   Clear
11:53 PM 72.0 °F - 69.1 °F 91% 29.93 in 10.0 mi South 6.9 mph - N/A   Overcast